Time_in_sec,gx,gy,gz
1312471578.84331608,-0.01735178,0.01920561,-0.99966497
1312471578.89527512,-0.01705750,0.01923480,-0.99966948
1312471578.94328213,-0.01708039,0.01903940,-0.99967283
1312471578.99531198,-0.01710133,0.01904084,-0.99967244
1312471579.04329538,-0.01702909,0.01930243,-0.99966866
1312471579.09530330,-0.01662086,0.01933339,-0.99967493
1312471579.14329791,-0.01642205,0.01949403,-0.99967510
1312471579.19528818,-0.01637728,0.01946285,-0.99967644
1312471579.24330831,-0.01620706,0.01947861,-0.99967891
1312471579.29636073,-0.01626972,0.01942955,-0.99967884
1312471579.34433889,-0.01621093,0.01969961,-0.99967451
1312471579.39534187,-0.01602794,0.01967886,-0.99967787
1312471579.44444919,-0.01607178,0.01941750,-0.99968228
1312471579.49527645,-0.01629771,0.01956619,-0.99967572
1312471579.54334831,-0.01608342,0.01927015,-0.99968494
1312471579.59541011,-0.01638753,0.01955008,-0.99967457
1312471579.64341187,-0.01637202,0.01962673,-0.99967332
1312471579.69530535,-0.01628723,0.01951867,-0.99967682
1312471579.74443173,-0.01641095,0.01973647,-0.99967052
1312471579.79642606,-0.01657022,0.01971164,-0.99966838
1312471579.84443712,-0.01663518,0.01983879,-0.99966479
1312471579.89528346,-0.01683733,0.01969482,-0.99966425
1312471579.94341207,-0.01675084,0.01999474,-0.99965975
1312471579.99542284,-0.01678947,0.02020204,-0.99965494
1312471580.04335618,-0.01687659,0.02019132,-0.99965369
1312471580.09643269,-0.01703095,0.01975948,-0.99965970
1312471580.14328790,-0.01712496,0.01956515,-0.99966191
1312471580.19642782,-0.01700450,0.01970601,-0.99966120
1312471580.24329805,-0.01706295,0.01982900,-0.99965777
1312471580.29530144,-0.01705414,0.01982820,-0.99965794
1312471580.34444785,-0.01658694,0.02004084,-0.99966156
1312471580.39530754,-0.01638438,0.02016051,-0.99966250
1312471580.44341373,-0.01616785,0.02024631,-0.99966429
1312471580.49543500,-0.01615910,0.02031029,-0.99966313
1312471580.54330277,-0.01628484,0.02028175,-0.99966167
1312471580.59542537,-0.01659400,0.02046592,-0.99965283
1312471580.64342237,-0.01647266,0.02040701,-0.99965604
1312471580.69528317,-0.01631315,0.02073141,-0.99965198
1312471580.74329305,-0.01630262,0.02064234,-0.99965400
1312471580.79529810,-0.01642519,0.02066737,-0.99965148
1312471580.84431744,-0.01636295,0.02078424,-0.99965007
1312471580.89543271,-0.01666405,0.02069187,-0.99964702
1312471580.94333673,-0.01658280,0.02058815,-0.99965051
1312471580.99542975,-0.01691847,0.02060950,-0.99964444
1312471581.04443955,-0.01693978,0.02073560,-0.99964148
1312471581.09528422,-0.01655768,0.02094066,-0.99964360
1312471581.14445257,-0.01662563,0.02089493,-0.99964343
1312471581.19249249,-0.01671818,0.02109943,-0.99963759
1312471581.24332643,-0.01691326,0.02082277,-0.99964011
1312471581.29242635,-0.01691721,0.02103335,-0.99963564
1312471581.34532404,-0.01696854,0.02105419,-0.99963433
1312471581.39242101,-0.01684908,0.02084879,-0.99964065
1312471581.44331837,-0.01677134,0.02079631,-0.99964305
1312471581.49529767,-0.01678750,0.02053832,-0.99964812
1312471581.54442525,-0.01682749,0.02044887,-0.99964928
1312471581.59243417,-0.01697819,0.02070707,-0.99964141
1312471581.64430881,-0.01700469,0.02069905,-0.99964113
1312471581.69328618,-0.01708268,0.02070386,-0.99963970
1312471581.74430823,-0.01718014,0.02060492,-0.99964008
1312471581.79238415,-0.01712972,0.02071233,-0.99963872
1312471581.84333539,-0.01715737,0.02116836,-0.99962869
1312471581.89316893,-0.01733877,0.02111540,-0.99962668
1312471581.94459820,-0.01732143,0.02096017,-0.99963025
1312471581.99530840,-0.01746771,0.02097422,-0.99962741
1312471582.04444647,-0.01772615,0.02106382,-0.99962098
1312471582.09548974,-0.01813292,0.02081983,-0.99961879
1312471582.14432693,-0.01818934,0.02105261,-0.99961289
1312471582.19568133,-0.01825954,0.02100915,-0.99961253
1312471582.24444509,-0.01820029,0.02085592,-0.99961682
1312471582.29528594,-0.01829425,0.02083126,-0.99961562
1312471582.34430790,-0.01792137,0.02043529,-0.99963054
1312471582.39625573,-0.01807041,0.02064147,-0.99962362
1312471582.44334960,-0.01807502,0.02063521,-0.99962367
1312471582.49639845,-0.01813824,0.02053850,-0.99962452
1312471582.54341388,-0.01826242,0.02063365,-0.99962030
1312471582.59642434,-0.01821899,0.02053169,-0.99962319
1312471582.64444733,-0.01830734,0.02061637,-0.99961983
1312471582.69529438,-0.01828716,0.02085190,-0.99961532
1312471582.74444795,-0.01841576,0.02091553,-0.99961162
1312471582.79642558,-0.01842295,0.02099806,-0.99960976
1312471582.84333968,-0.01851568,0.02076565,-0.99961290
1312471582.89646459,-0.01854001,0.02072027,-0.99961339
1312471582.94329500,-0.01859374,0.02074983,-0.99961178
1312471582.99643397,-0.01851690,0.02075661,-0.99961307
1312471583.04445934,-0.01865941,0.02083141,-0.99960886
1312471583.09529138,-0.01876467,0.02050073,-0.99961373
1312471583.14734149,-0.01859108,0.02042382,-0.99961855
1312471583.19530082,-0.01842351,0.02027083,-0.99962476
1312471583.24365211,-0.01851206,0.02039358,-0.99962063
1312471583.29633379,-0.01854822,0.02011195,-0.99962567
1312471583.34330106,-0.01834564,0.02042124,-0.99962313
1312471583.39643645,-0.01831945,0.02056226,-0.99962072
1312471583.44329166,-0.01823373,0.02041736,-0.99962526
1312471583.49528813,-0.01818391,0.02054753,-0.99962350
1312471583.54443550,-0.01834800,0.02019550,-0.99962768
1312471583.59644890,-0.01883354,0.01985949,-0.99962538
1312471583.64444613,-0.01855846,0.01976821,-0.99963233
1312471583.69643378,-0.01858579,0.01974312,-0.99963232
1312471583.74328661,-0.01836448,0.01959835,-0.99963926
1312471583.79529095,-0.01845116,0.01983110,-0.99963307
1312471583.84328079,-0.01843637,0.01956008,-0.99963869
1312471583.89529705,-0.01852641,0.01946760,-0.99963883
1312471583.94377446,-0.01857535,0.01947581,-0.99963776
1312471583.99645877,-0.01848420,0.01921338,-0.99964453
1312471584.04329896,-0.01847783,0.01907403,-0.99964731
1312471584.09531689,-0.01806830,0.01882678,-0.99965949
1312471584.14342856,-0.01817345,0.01853082,-0.99966311
1312471584.19235420,-0.01808357,0.01862379,-0.99966301
1312471584.24335003,-0.01809843,0.01873180,-0.99966073
1312471584.29531407,-0.01842046,0.01885496,-0.99965253
1312471584.34337139,-0.01864988,0.01909859,-0.99964365
1312471584.39241171,-0.01881562,0.01869011,-0.99964826
1312471584.44335270,-0.01851722,0.01857157,-0.99965605
1312471584.48443389,-0.01856514,0.01843151,-0.99965775
1312471584.54336262,-0.01847224,0.01840927,-0.99965988
1312471584.58432388,-0.01856378,0.01837312,-0.99965885
1312471584.63630271,-0.01862318,0.01827026,-0.99965963
1312471584.68734050,-0.01852723,0.01850811,-0.99965704
1312471584.73640060,-0.01856914,0.01834686,-0.99965923
1312471584.78834462,-0.01862075,0.01819613,-0.99966103
1312471584.83529329,-0.01815436,0.01795795,-0.99967391
1312471584.88433528,-0.01823520,0.01785495,-0.99967429
1312471584.93531656,-0.01834565,0.01785294,-0.99967230
1312471584.98433113,-0.01828285,0.01777158,-0.99967490
1312471585.03630996,-0.01811062,0.01793544,-0.99967511
1312471585.08729792,-0.01769034,0.01767236,-0.99968732
1312471585.14335513,-0.01752538,0.01734172,-0.99969602
1312471585.18733478,-0.01773007,0.01738527,-0.99969165
1312471585.23629332,-0.01752486,0.01730858,-0.99969660
1312471585.28444910,-0.01760692,0.01720656,-0.99969692
1312471585.33541632,-0.01786504,0.01702959,-0.99969537
1312471585.38842988,-0.01800120,0.01696724,-0.99969399
1312471585.43531203,-0.01830025,0.01681837,-0.99969107
1312471585.48442435,-0.01811348,0.01667257,-0.99969692
1312471585.53533673,-0.01832330,0.01659858,-0.99969433
1312471585.58763289,-0.01776441,0.01629220,-0.99970945
1312471585.63530183,-0.01784485,0.01653788,-0.99970399
1312471585.68740869,-0.01795618,0.01665816,-0.99970000
1312471585.73541975,-0.01788547,0.01694597,-0.99969643
1312471585.78431082,-0.01788523,0.01709280,-0.99969393
1312471585.83630276,-0.01750528,0.01670556,-0.99970720
1312471585.88442636,-0.01749794,0.01692100,-0.99970371
1312471585.93631387,-0.01719498,0.01707545,-0.99970634
1312471585.98443389,-0.01713942,0.01718763,-0.99970537
1312471586.03628826,-0.01730069,0.01706301,-0.99970473
1312471586.08442640,-0.01730087,0.01697441,-0.99970623
1312471586.13628936,-0.01731817,0.01700731,-0.99970537
1312471586.18835640,-0.01720163,0.01693888,-0.99970855
1312471586.23534608,-0.01708367,0.01712586,-0.99970738
1312471586.28443789,-0.01696292,0.01699810,-0.99971162
1312471586.33630943,-0.01679344,0.01655123,-0.99972198
1312471586.38442636,-0.01667589,0.01671375,-0.99972124
1312471586.43529367,-0.01682128,0.01685556,-0.99971643
1312471586.48442578,-0.01701871,0.01684921,-0.99971319
1312471586.53528881,-0.01681317,0.01685635,-0.99971655
1312471586.58835626,-0.01700877,0.01713876,-0.99970844
1312471586.63534880,-0.01705895,0.01689693,-0.99971170
1312471586.68443561,-0.01689744,0.01677666,-0.99971647
1312471586.73630548,-0.01703416,0.01689335,-0.99971218
1312471586.78742647,-0.01687339,0.01696423,-0.99971371
1312471586.83529949,-0.01738093,0.01712031,-0.99970235
1312471586.88741517,-0.01730549,0.01703373,-0.99970514
1312471586.93540740,-0.01727685,0.01709944,-0.99970452
1312471586.98741245,-0.01708086,0.01705998,-0.99970856
1312471587.03648734,-0.01711492,0.01708112,-0.99970761
1312471587.08845997,-0.01657294,0.01703778,-0.99971749
1312471587.13630629,-0.01669142,0.01707181,-0.99971493
1312471587.18852592,-0.01654484,0.01737506,-0.99971215
1312471587.23529220,-0.01650231,0.01737707,-0.99971281
1312471587.28342676,-0.01644319,0.01733659,-0.99971449
1312471587.33629775,-0.01779454,0.01846245,-0.99967119
1312471587.38332582,-0.01756390,0.01819139,-0.99968024
1312471587.43544030,-0.01763124,0.01796849,-0.99968309
1312471587.48841763,-0.01777533,0.01789820,-0.99968180
1312471587.53639150,-0.01768499,0.01778067,-0.99968549
1312471587.58833170,-0.01795321,0.01734768,-0.99968832
1312471587.63635635,-0.01773528,0.01742227,-0.99969091
1312471587.68833971,-0.01783811,0.01751580,-0.99968745
1312471587.73631406,-0.01770266,0.01734745,-0.99969279
1312471587.78435946,-0.01767940,0.01740720,-0.99969217
1312471587.83540201,-0.01766430,0.01687839,-0.99970150
1312471587.88834882,-0.01760415,0.01689778,-0.99970224
1312471587.93630648,-0.01718417,0.01685528,-0.99971026
1312471587.98430490,-0.01724844,0.01666344,-0.99971237
1312471588.03531432,-0.01699719,0.01659001,-0.99971789
1312471588.08443713,-0.01670120,0.01645787,-0.99972507
1312471588.13540506,-0.01664119,0.01643784,-0.99972640
1312471588.18431568,-0.01671874,0.01686053,-0.99971806
1312471588.23532748,-0.01657736,0.01686098,-0.99972041
1312471588.28843045,-0.01653164,0.01669907,-0.99972388
1312471588.33637333,-0.01698454,0.01666046,-0.99971694
1312471588.38732600,-0.01693120,0.01669766,-0.99971722
1312471588.43530273,-0.01701350,0.01658752,-0.99971766
1312471588.48842120,-0.01713543,0.01661669,-0.99971509
1312471588.53630614,-0.01712261,0.01713119,-0.99970663
1312471588.58843613,-0.01762715,0.01720376,-0.99969661
1312471588.63629746,-0.01789933,0.01707481,-0.99969399
1312471588.68432903,-0.01767640,0.01711248,-0.99969731
1312471588.73572111,-0.01775258,0.01711603,-0.99969590
1312471588.78833008,-0.01769828,0.01730776,-0.99969356
1312471588.83537483,-0.01801987,0.01669479,-0.99969824
1312471588.88433218,-0.01798082,0.01681876,-0.99969686
1312471588.93638110,-0.01815437,0.01669689,-0.99969577
1312471588.98842740,-0.01834950,0.01650790,-0.99969535
1312471589.03629947,-0.01839494,0.01661216,-0.99969278
1312471589.08844733,-0.01838726,0.01650003,-0.99969478
1312471589.13628983,-0.01817848,0.01653891,-0.99969796
1312471589.18442750,-0.01793063,0.01641622,-0.99970446
1312471589.23629165,-0.01809384,0.01639711,-0.99970183
1312471589.28443789,-0.01811406,0.01608809,-0.99970648
1312471589.33541298,-0.01791506,0.01530940,-0.99972230
1312471589.38729739,-0.01811129,0.01531262,-0.99971871
1312471589.43631363,-0.01805212,0.01523414,-0.99972098
1312471589.48443127,-0.01801898,0.01521365,-0.99972189
1312471589.53631830,-0.01811207,0.01495801,-0.99972407
1312471589.58430672,-0.01870212,0.01372991,-0.99973082
1312471589.63628960,-0.01879046,0.01372553,-0.99972923
1312471589.68841696,-0.01888761,0.01376952,-0.99972679
1312471589.73629785,-0.01899820,0.01359097,-0.99972714
1312471589.78445649,-0.01911681,0.01352775,-0.99972574
1312471589.83541489,-0.01942564,0.01353045,-0.99971975
1312471589.88446307,-0.01954412,0.01344530,-0.99971859
1312471589.93542528,-0.01947804,0.01324384,-0.99972256
1312471589.98843265,-0.01941279,0.01338151,-0.99972200
1312471590.03529811,-0.01931301,0.01375707,-0.99971884
1312471590.08342981,-0.01914113,0.01330050,-0.99972832
1312471590.13582206,-0.01903441,0.01351658,-0.99972746
1312471590.18743420,-0.01897774,0.01354422,-0.99972816
1312471590.23616743,-0.01884903,0.01349044,-0.99973133
1312471590.28343749,-0.01893342,0.01343703,-0.99973045
1312471590.33540988,-0.01933417,0.01342889,-0.99972289
1312471590.38842130,-0.01954261,0.01339968,-0.99971923
1312471590.43530560,-0.01936168,0.01363968,-0.99971950
1312471590.48842669,-0.01925497,0.01366276,-0.99972125
1312471590.53532720,-0.01933790,0.01357133,-0.99972089
1312471590.58734703,-0.01967426,0.01351473,-0.99971510
1312471590.63542104,-0.01982719,0.01340917,-0.99971350
1312471590.68337488,-0.01965035,0.01338489,-0.99971731
1312471590.73679948,-0.01963121,0.01346967,-0.99971655
1312471590.78435373,-0.01963646,0.01323098,-0.99971964
1312471590.83529282,-0.01988059,0.01379841,-0.99970714
1312471590.88435245,-0.02009127,0.01370186,-0.99970426
1312471590.93530297,-0.02022275,0.01343848,-0.99970518
1312471590.98442936,-0.02023280,0.01376013,-0.99970060
1312471591.03634310,-0.02007025,0.01353356,-0.99970697
1312471591.08443832,-0.01915083,0.01371119,-0.99972259
1312471591.13649917,-0.01905059,0.01348169,-0.99972762
1312471591.18846607,-0.01923075,0.01375144,-0.99972050
1312471591.23529339,-0.01942871,0.01372191,-0.99971708
1312471591.28843760,-0.01933602,0.01372992,-0.99971876
1312471591.33632994,-0.01914795,0.01402112,-0.99971834
1312471591.38842916,-0.01924498,0.01384499,-0.99971893
1312471591.43631673,-0.01939095,0.01396850,-0.99971440
1312471591.48843050,-0.01923339,0.01357501,-0.99972286
1312471591.53638506,-0.01935951,0.01350890,-0.99972132
1312471591.58742237,-0.01978317,0.01381371,-0.99970886
1312471591.63639975,-0.02003216,0.01373356,-0.99970501
1312471591.68422174,-0.02004683,0.01366013,-0.99970572
1312471591.74342275,-0.02004585,0.01356365,-0.99970705
1312471591.78434873,-0.01995109,0.01344457,-0.99971056
1312471591.83635855,-0.01938359,0.01373190,-0.99971782
1312471591.88438177,-0.01933958,0.01340882,-0.99972305
1312471591.93548822,-0.01930661,0.01369357,-0.99971983
1312471591.98467708,-0.01924527,0.01378314,-0.99971978
1312471592.03584027,-0.01911329,0.01393088,-0.99972027
1312471592.08844185,-0.01931878,0.01382987,-0.99971772
1312471592.13596225,-0.01948471,0.01383701,-0.99971440
1312471592.18432045,-0.01938702,0.01372842,-0.99971780
1312471592.24041319,-0.01960017,0.01373931,-0.99971349
1312471592.28740835,-0.01948979,0.01363661,-0.99971706
1312471592.33676600,-0.01947342,0.01307566,-0.99972487
1312471592.38388586,-0.01944116,0.01309581,-0.99972523
1312471592.43406510,-0.01940065,0.01310930,-0.99972584
1312471592.48407078,-0.01946174,0.01321597,-0.99972325
1312471592.53533030,-0.01961204,0.01343189,-0.99971744
1312471592.58424807,-0.01932378,0.01227750,-0.99973789
1312471592.63542175,-0.01925031,0.01236120,-0.99973828
1312471592.69528937,-0.01940873,0.01211717,-0.99973820
1312471592.73634410,-0.01925369,0.01239277,-0.99973782
1312471592.78803635,-0.01921604,0.01262379,-0.99973566
1312471592.83529902,-0.01851131,0.01166371,-0.99976062
1312471592.88730311,-0.01863511,0.01174502,-0.99975736
1312471592.93532848,-0.01848577,0.01174988,-0.99976008
1312471592.98741579,-0.01860122,0.01175596,-0.99975787
1312471593.04343128,-0.01845280,0.01156603,-0.99976283
1312471593.09529090,-0.01765570,0.01117608,-0.99978166
1312471593.14343810,-0.01765617,0.01130783,-0.99978017
1312471593.19561863,-0.01735037,0.01121675,-0.99978655
1312471593.24334502,-0.01749945,0.01100188,-0.99978634
1312471593.29243708,-0.01761190,0.01117398,-0.99978246
1312471593.33629870,-0.01712993,0.01076424,-0.99979533
1312471593.38342929,-0.01722745,0.01095233,-0.99979161
1312471593.43640113,-0.01722916,0.01098741,-0.99979119
1312471593.49529195,-0.01734389,0.01104462,-0.99978858
1312471593.54341531,-0.01737587,0.01111246,-0.99978727
1312471593.59539747,-0.01674939,0.01130015,-0.99979586
1312471593.63657928,-0.01677821,0.01177801,-0.99978986
1312471593.68328643,-0.01689899,0.01192453,-0.99978609
1312471593.74328828,-0.01667991,0.01196050,-0.99978934
1312471593.78431988,-0.01660967,0.01203588,-0.99978961
1312471593.83642364,-0.01619583,0.01180290,-0.99979917
1312471593.88331389,-0.01617442,0.01170395,-0.99980068
1312471593.93637300,-0.01602727,0.01167530,-0.99980339
1312471593.99231148,-0.01594083,0.01178646,-0.99980347
1312471594.03639913,-0.01597592,0.01153497,-0.99980584
1312471594.09534097,-0.01580855,0.01183035,-0.99980505
1312471594.14328790,-0.01586849,0.01169280,-0.99980572
1312471594.18429637,-0.01592340,0.01156947,-0.99980628
1312471594.24029255,-0.01587332,0.01157305,-0.99980703
1312471594.28791428,-0.01590522,0.01139084,-0.99980862
1312471594.33628535,-0.01599226,0.01120331,-0.99980935
1312471594.39643979,-0.01619273,0.01101251,-0.99980824
1312471594.43544006,-0.01647720,0.01090538,-0.99980477
1312471594.49551964,-0.01657688,0.01089266,-0.99980326
1312471594.54329300,-0.01640478,0.01085487,-0.99980651
1312471594.58742952,-0.01615661,0.01094530,-0.99980956
1312471594.64335871,-0.01596367,0.01091820,-0.99981296
1312471594.69529700,-0.01595857,0.01071930,-0.99981519
1312471594.74338007,-0.01643394,0.01075438,-0.99980712
1312471594.79643226,-0.01665775,0.01069925,-0.99980400
1312471594.83557892,-0.01638039,0.01052971,-0.99981039
1312471594.89643717,-0.01624848,0.01021545,-0.99981580
1312471594.94329214,-0.01645163,0.01031268,-0.99981148
1312471594.99635649,-0.01655538,0.01013394,-0.99981159
1312471595.04331136,-0.01675856,0.01020757,-0.99980746
1312471595.09528708,-0.01634655,0.01016532,-0.99981471
1312471595.14329171,-0.01636784,0.01015228,-0.99981450
1312471595.19642782,-0.01629342,0.01050702,-0.99981205
1312471595.23640275,-0.01619937,0.01038285,-0.99981487
1312471595.28843546,-0.01637464,0.01040111,-0.99981183
1312471595.33532214,-0.01640701,0.01065414,-0.99980863
1312471595.39555502,-0.01643323,0.01035664,-0.99981133
1312471595.44442487,-0.01642618,0.01046775,-0.99981029
1312471595.49528575,-0.01645255,0.01033708,-0.99981121
1312471595.54328132,-0.01655061,0.01018450,-0.99981116
1312471595.59629130,-0.01636312,0.00993287,-0.99981678
1312471595.63657331,-0.01640540,0.00981587,-0.99981724
1312471595.69643569,-0.01647964,0.00970731,-0.99981708
1312471595.74341512,-0.01636894,0.00965615,-0.99981939
1312471595.79643607,-0.01649428,0.00968394,-0.99981706
1312471595.83636904,-0.01697729,0.00979380,-0.99980791
1312471595.89529181,-0.01704966,0.00984187,-0.99980620
1312471595.94330359,-0.01732851,0.00969319,-0.99980286
1312471595.99644303,-0.01723906,0.00963162,-0.99980500
1312471596.04443884,-0.01738774,0.00956662,-0.99980305
1312471596.09542346,-0.01760561,0.00979395,-0.99979704
1312471596.14330173,-0.01782420,0.00955884,-0.99979544
1312471596.19544339,-0.01812390,0.00911831,-0.99979417
1312471596.24733520,-0.01835886,0.00889982,-0.99979185
1312471596.29528475,-0.01845576,0.00890688,-0.99979000
1312471596.34329462,-0.01899357,0.00906656,-0.99977850
1312471596.39533353,-0.01904353,0.00902176,-0.99977795
1312471596.43533492,-0.01917610,0.00912435,-0.99977449
1312471596.49250650,-0.01909722,0.00907972,-0.99977640
1312471596.54343843,-0.01908315,0.00927946,-0.99977484
1312471596.59541631,-0.01842847,0.00910757,-0.99978870
1312471596.64328170,-0.01847702,0.00907038,-0.99978814
1312471596.69529200,-0.01862642,0.00906402,-0.99978543
1312471596.74360299,-0.01841523,0.00911658,-0.99978886
1312471596.79232073,-0.01845455,0.00910037,-0.99978828
1312471596.84444118,-0.01874768,0.00876610,-0.99978582
1312471596.89643383,-0.01864328,0.00890108,-0.99978658
1312471596.94330215,-0.01881229,0.00889174,-0.99978349
1312471596.99238348,-0.01889028,0.00889778,-0.99978197
1312471597.04328513,-0.01919631,0.00891958,-0.99977595
1312471597.09529400,-0.01893306,0.00879107,-0.99978210
1312471597.14444852,-0.01909728,0.00902344,-0.99977691
1312471597.19532037,-0.01894919,0.00896702,-0.99978024
1312471597.24332118,-0.01902851,0.00898171,-0.99977860
1312471597.29317975,-0.01886602,0.00908382,-0.99978075
1312471597.34328675,-0.01952261,0.00963513,-0.99976299
1312471597.39531064,-0.01971179,0.00961954,-0.99975943
1312471597.44334602,-0.01968033,0.00936072,-0.99976250
1312471597.49528480,-0.01949157,0.00917078,-0.99976796
1312471597.54328203,-0.01960895,0.00894120,-0.99976774
1312471597.59530759,-0.01938924,0.00886359,-0.99977272
